| time (UTC) | temp F | wind direction | speed knots | gust knots | rain 1hr in | rain 24hr in | rain mn in | humidity % | barometer mb |
| 20260504044559 | 42 | 162 | 0.9 | 3.5 | 0.00 | 0.00 | 0.00 | 72 | 1015.2 |
| 20260504043055 | 42 | 180 | 0.9 | 3.5 | 0.00 | 0.00 | 0.00 | 72 | 1015.2 |
| 20260504041549 | 43 | 0 | 0.9 | 3.5 | 0.00 | 0.00 | 0.00 | 71 | 1015.1 |
| 20260504040104 | 43 | 171 | 1.7 | 3.5 | 0.00 | 0.00 | 0.00 | 71 | 1015.2 |
| 20260504034611 | 44 | 0 | 0.0 | 0.0 | 0.00 | 0.00 | 0.00 | 68 | 1015.2 |
| 20260504033047 | 44 | 0 | 0.0 | 0.0 | 0.00 | 0.00 | 0.00 | 67 | 1015.0 |
| 20260504031544 | 45 | 0 | 0.0 | 1.7 | 0.00 | 0.00 | 0.00 | 66 | 1015.0 |
| 20260504030048 | 45 | 0 | 0.0 | 0.0 | 0.00 | 0.00 | 0.00 | 65 | 1015.1 |
| 20260504024549 | 46 | 0 | 0.0 | 3.5 | 0.00 | 0.00 | 0.00 | 63 | 1015.0 |
| 20260504023048 | 46 | 360 | 0.9 | 3.5 | 0.00 | 0.00 | 0.00 | 61 | 1015.0 |
| 20260504021550 | 47 | 0 | 0.0 | 2.6 | 0.00 | 0.00 | 0.00 | 59 | 1015.0 |
| 20260504020043 | 48 | 360 | 0.9 | 2.6 | 0.00 | 0.00 | 0.00 | 57 | 1014.7 |
| 20260504014543 | 48 | 0 | 0.9 | 2.6 | 0.00 | 0.00 | 0.00 | 55 | 1014.6 |
| 20260504013053 | 49 | 360 | 0.9 | 2.6 | 0.00 | 0.00 | 0.00 | 53 | 1014.6 |
| 20260504011548 | 51 | 0 | 0.0 | 1.7 | 0.00 | 0.00 | 0.00 | 50 | 1014.6 |
| 20260504010052 | 52 | 360 | 0.9 | 2.6 | 0.00 | 0.00 | 0.00 | 47 | 1014.5 |
| 20260504004550 | 53 | 360 | 0.9 | 2.6 | 0.00 | 0.00 | 0.00 | 43 | 1014.4 |
| 20260504003048 | 54 | 0 | 0.0 | 2.6 | 0.00 | 0.00 | 0.00 | 41 | 1014.2 |
| 20260504001600 | 56 | 179 | 0.0 | 1.7 | 0.00 | 0.00 | 0.00 | 38 | 1014.2 |
| 20260504000047 | 58 | 0 | 0.0 | 6.1 | 0.00 | 0.00 | 0.00 | 34 | 1014.1 |
| 20260503234549 | 59 | 44 | 1.7 | 8.7 | 0.00 | 0.00 | 0.00 | 30 | 1013.8 |
| 20260503233045 | 59 | 177 | 2.6 | 9.6 | 0.00 | 0.00 | 0.00 | 30 | 1013.9 |
| 20260503231548 | 59 | 165 | 3.5 | 9.6 | 0.00 | 0.00 | 0.00 | 29 | 1013.8 |
| 20260503230047 | 60 | 154 | 2.6 | 10.4 | 0.00 | 0.00 | 0.00 | 29 | 1013.7 |
| 20260503224546 | 60 | 14 | 5.2 | 13.9 | 0.00 | 0.00 | 0.00 | 28 | 1013.5 |
| 20260503223048 | 61 | 26 | 3.5 | 13.9 | 0.00 | 0.00 | 0.00 | 27 | 1013.5 |
| 20260503221547 | 61 | 21 | 4.3 | 15.6 | 0.00 | 0.00 | 0.00 | 28 | 1013.7 |
| 20260503220049 | 61 | 19 | 7.0 | 14.8 | 0.00 | 0.00 | 0.00 | 28 | 1013.8 |
| 20260503214547 | 61 | 17 | 8.7 | 13.0 | 0.00 | 0.00 | 0.00 | 27 | 1013.7 |
| 20260503213047 | 61 | 17 | 7.8 | 20.9 | 0.00 | 0.00 | 0.00 | 27 | 1014.1 |
| 20260503211556 | 61 | 15 | 6.1 | 17.4 | 0.00 | 0.00 | 0.00 | 28 | 1013.8 |
| 20260503210047 | 61 | 18 | 6.1 | 17.4 | 0.00 | 0.00 | 0.00 | 27 | 1013.9 |
| 20260503204555 | 61 | 15 | 5.2 | 12.2 | 0.00 | 0.00 | 0.00 | 27 | 1013.8 |
| 20260503203051 | 61 | 21 | 7.8 | 16.5 | 0.00 | 0.00 | 0.00 | 27 | 1014.0 |
| 20260503201547 | 61 | 19 | 7.0 | 17.4 | 0.00 | 0.00 | 0.00 | 27 | 1014.0 |
| 20260503200050 | 61 | 19 | 4.3 | 14.8 | 0.00 | 0.00 | 0.00 | 28 | 1014.2 |
| 20260503194549 | 60 | 19 | 4.3 | 13.9 | 0.00 | 0.00 | 0.00 | 26 | 1014.4 |
| 20260503193102 | 61 | 17 | 6.1 | 13.9 | 0.00 | 0.00 | 0.00 | 28 | 1014.5 |
| 20260503191550 | 60 | 15 | 1.7 | 13.0 | 0.00 | 0.00 | 0.00 | 30 | 1014.6 |
| 20260503184543 | 59 | 22 | 7.0 | 16.5 | 0.00 | 0.00 | 0.00 | 28 | 1015.1 |
| 20260503183057 | 60 | 15 | 3.5 | 15.6 | 0.00 | 0.00 | 0.00 | 29 | 1015.1 |
| 20260503181541 | 59 | 19 | 5.2 | 17.4 | 0.00 | 0.00 | 0.00 | 28 | 1015.2 |
| 20260503180056 | 58 | 17 | 4.3 | 13.9 | 0.00 | 0.00 | 0.00 | 28 | 1015.4 |
| 20260503174550 | 58 | 13 | 5.2 | 14.8 | 0.00 | 0.00 | 0.00 | 28 | 1015.5 |
| 20260503173103 | 57 | 19 | 4.3 | 13.0 | 0.00 | 0.00 | 0.00 | 29 | 1015.3 |
| 20260503171550 | 55 | 18 | 7.0 | 21.7 | 0.00 | 0.00 | 0.00 | 30 | 1015.8 |
| 20260503081550 | 41 | 132 | 3.5 | 9.6 | 0.00 | 0.00 | 0.00 | 61 | 1015.5 |